Spokane, WA
on Tuesday, November 6, 2012

Tuesday
Previous Day Next Day
Daily Summary
 ActualAverageRecord
Temperature
Mean Temperature °F / °C 39°F / 4°C  
Max Temperature 55°F / 13°C 46°F / 8°C 61°F / 16°C (2006)
Min Temperature 39°F / 4°C 32°F / 0°C 9°F / -12°C (2003)
Degree Days
Heating Degree Days 18 26  
Month to date heating degree days 95 149  
Since 1 July heating degree days 701 937  
Cooling Degree Days 0 0  
Month to date cooling degree days 0 0  
Year to date cooling degree days 535 450  
Moisture
Dew Point 45°F / 7°C   
Average Humidity 89    
Maximum Humidity 100    
Minimum Humidity 77    
Precipitation
Precipitation 0.02 in / 0.51 cm 0.07 in / 1.78 cm 0.84 in / 2.13 cm (1903)
Month to date precipitation 0.30 0.39  
Year to date precipitation 15.80 12.35  
Snow
Snow 0.00 in / 0.00 cm 0.10 in / 0.25 cm 0.30 in / 0.76 cm (1975)
Month to date snowfall 0.0 0.5  
Since 1 July snowfall T 0.6  
Since 1 September snowfall T 0.6  
Snow Depth 0.00 in / 0.00 cm   
Wind
Wind Speed 6 mph / 9 km/h   
Max Wind Speed 17 mph / 27 km/h   
Max Gust Speed 22 mph / 35 km/h   
Visibility 4 miles / 7 kilometers   
Events Fog , Rain   

Key: T is trace of precipitation, MM is missing value
Source: NWS Daily Summary
Time(PST)TemperatureDew PointHumidity Pressure Visibility Wind DirectionWind SpeedGust SpeedPrecipitationEvents Conditions
12:53 AM 42.1°F / 5.6°C 39.9°F / 4.4°C 92% 30.21 in / 1022.8 hPa 10.0 miles / 16.1 kilometers East 3.5 mph / 5.6 km/h - N/A   Mostly Cloudy
1:18 AM 42.8°F / 6.0°C 41.0°F / 5.0°C 93% 30.19 in / 1022.2 hPa 2.0 miles / 3.2 kilometers ENE 4.6 mph / 7.4 km/h - N/A   Mostly Cloudy
1:33 AM 41.0°F / 5.0°C 41.0°F / 5.0°C 100% 30.19 in / 1022.2 hPa 0.5 miles / 0.8 kilometers Calm Calm - N/A Fog Fog
1:53 AM 41.0°F / 5.0°C 41.0°F / 5.0°C 100% 30.20 in / 1022.6 hPa 0.5 miles / 0.8 kilometers Calm Calm - N/A Fog Fog
2:53 AM 39.0°F / 3.9°C 39.0°F / 3.9°C 100% 30.19 in / 1022.4 hPa 0.5 miles / 0.8 kilometers Calm Calm - N/A Fog Fog
3:53 AM 39.0°F / 3.9°C 39.0°F / 3.9°C 100% 30.18 in / 1021.8 hPa 0.5 miles / 0.8 kilometers ENE 3.5 mph / 5.6 km/h - N/A Fog Fog
4:53 AM 41.0°F / 5.0°C 41.0°F / 5.0°C 100% 30.17 in / 1021.4 hPa 0.2 miles / 0.4 kilometers NE 5.8 mph / 9.3 km/h - N/A Fog Fog
5:53 AM 41.0°F / 5.0°C 39.9°F / 4.4°C 96% 30.15 in / 1020.9 hPa 0.2 miles / 0.4 kilometers ENE 5.8 mph / 9.3 km/h - N/A Fog Fog
6:53 AM 41.0°F / 5.0°C 41.0°F / 5.0°C 100% 30.15 in / 1020.8 hPa 0.2 miles / 0.4 kilometers ENE 6.9 mph / 11.1 km/h - N/A Fog Fog
7:43 AM 42.8°F / 6.0°C 41.0°F / 5.0°C 93% 30.11 in / 1019.5 hPa 0.1 miles / 0.2 kilometers ENE 9.2 mph / 14.8 km/h - N/A Fog Fog
7:53 AM 42.1°F / 5.6°C 42.1°F / 5.6°C 100% 30.14 in / 1020.6 hPa 0.1 miles / 0.2 kilometers ENE 4.6 mph / 7.4 km/h - N/A Fog Fog
8:53 AM 43.0°F / 6.1°C 42.1°F / 5.6°C 97% 30.12 in / 1020.0 hPa 0.1 miles / 0.2 kilometers ENE 5.8 mph / 9.3 km/h - N/A Fog Fog
9:53 AM 44.1°F / 6.7°C 43.0°F / 6.1°C 96% 30.11 in / 1019.5 hPa 0.1 miles / 0.2 kilometers ENE 6.9 mph / 11.1 km/h - N/A Fog Fog
10:53 AM 45.0°F / 7.2°C 44.1°F / 6.7°C 97% 30.08 in / 1018.5 hPa 0.2 miles / 0.4 kilometers NE 4.6 mph / 7.4 km/h - N/A Fog Fog
11:42 AM 46.4°F / 8.0°C 44.6°F / 7.0°C 93% 30.03 in / 1016.8 hPa 0.5 miles / 0.8 kilometers NNE 4.6 mph / 7.4 km/h - N/A Fog Fog
11:53 AM 46.9°F / 8.3°C 46.0°F / 7.8°C 97% 30.05 in / 1017.4 hPa 0.5 miles / 0.8 kilometers NE 4.6 mph / 7.4 km/h - N/A   Overcast
12:18 PM 46.4°F / 8.0°C 46.4°F / 8.0°C 100% 30.00 in / 1015.8 hPa 1.0 miles / 1.6 kilometers NE 4.6 mph / 7.4 km/h - N/A   Mostly Cloudy
12:22 PM 48.2°F / 9.0°C 46.4°F / 8.0°C 93% 30.00 in / 1015.8 hPa 2.0 miles / 3.2 kilometers NNE 3.5 mph / 5.6 km/h - N/A   Mostly Cloudy
12:23 PM 48.2°F / 9.0°C 46.4°F / 8.0°C 93% 30.00 in / 1015.8 hPa 6.0 miles / 9.7 kilometers NE 3.5 mph / 5.6 km/h - N/A   Mostly Cloudy
12:53 PM 51.1°F / 10.6°C 46.0°F / 7.8°C 83% 30.00 in / 1015.9 hPa 10.0 miles / 16.1 kilometers NE 3.5 mph / 5.6 km/h - N/A   Mostly Cloudy
1:53 PM 54.0°F / 12.2°C 46.9°F / 8.3°C 77% 29.97 in / 1014.8 hPa 10.0 miles / 16.1 kilometers NE 4.6 mph / 7.4 km/h - N/A   Overcast
2:53 PM 54.0°F / 12.2°C 48.0°F / 8.9°C 80% 29.96 in / 1014.4 hPa 10.0 miles / 16.1 kilometers North 3.5 mph / 5.6 km/h - N/A   Overcast
3:53 PM 53.1°F / 11.7°C 48.0°F / 8.9°C 83% 29.93 in / 1013.5 hPa 10.0 miles / 16.1 kilometers Calm Calm - N/A   Overcast
4:53 PM 51.1°F / 10.6°C 48.0°F / 8.9°C 89% 29.91 in / 1012.8 hPa 10.0 miles / 16.1 kilometers Calm Calm - N/A   Overcast
5:53 PM 50.0°F / 10.0°C 46.0°F / 7.8°C 86% 29.90 in / 1012.3 hPa 10.0 miles / 16.1 kilometers Calm Calm - N/A   Mostly Cloudy
6:53 PM 52.0°F / 11.1°C 46.0°F / 7.8°C 80% 29.89 in / 1012.2 hPa 10.0 miles / 16.1 kilometers SSW 9.2 mph / 14.8 km/h - N/A   Overcast
7:53 PM 53.1°F / 11.7°C 48.0°F / 8.9°C 83% 29.89 in / 1012.0 hPa 10.0 miles / 16.1 kilometers SSW 9.2 mph / 14.8 km/h - 0.00 in / 0.0 cm Rain Light Rain
8:53 PM 53.1°F / 11.7°C 50.0°F / 10.0°C 89% 29.88 in / 1011.6 hPa 10.0 miles / 16.1 kilometers SSW 11.5 mph / 18.5 km/h - 0.00 in / 0.0 cm   Overcast
9:20 PM 51.8°F / 11.0°C 50.0°F / 10.0°C 94% 29.87 in / 1011.4 hPa 7.0 miles / 11.3 kilometers SW 15.0 mph / 24.1 km/h - 0.00 in / 0.0 cm   Mostly Cloudy
9:41 PM 51.8°F / 11.0°C 50.0°F / 10.0°C 94% 29.87 in / 1011.4 hPa 4.0 miles / 6.4 kilometers SSW 15.0 mph / 24.1 km/h - 0.00 in / 0.0 cm Rain Light Rain
9:53 PM 52.0°F / 11.1°C 50.0°F / 10.0°C 93% 29.89 in / 1012.0 hPa 4.0 miles / 6.4 kilometers SSW 13.8 mph / 22.2 km/h - 0.01 in / 0.3 cm Rain Light Rain
10:53 PM 51.1°F / 10.6°C 48.9°F / 9.4°C 92% 29.89 in / 1012.0 hPa 5.0 miles / 8.0 kilometers SW 15.0 mph / 24.1 km/h - 0.00 in / 0.0 cm Rain Light Rain
11:53 PM 51.1°F / 10.6°C 48.9°F / 9.4°C 92% 29.88 in / 1011.8 hPa 5.0 miles / 8.0 kilometers SSW 13.8 mph / 22.2 km/h - 0.01 in / 0.3 cm   Mostly Cloudy
Moon Phase
Nov. 06 Nov. 06 Nov. 13 Nov. 20 Nov. 28
Sunrise:06:42 AM (PST) Moon Rise:11:14 PM (PST)11/6
Sunset:04:24 PM (PST) Moon Set:12:33 PM (PST)11/6

Copyright © 2014 The Weather Underground, Inc.